• In Deutschland
  • Länderverzeichnis
  • Für 7 Tage
  • Wassertemperatur
  • Satellitenkarten
  • Wetterkarte
  • Widgets
  • user-avatar
    Anmelden

    Stündliche Wetter Brest

    Heute, 23 Juli, Sonntag

    Zeit Temperatur Niederschläge Wind Luftdruck Luftfeuchtigkeit
    00:00 +18°C° 0 mm 2 m/S 750 mmHg 88%
    01:00 +17°C° 0 mm 2 m/S 750 mmHg 89%
    02:00 +17°C° 0 mm 2 m/S 750 mmHg 91%
    03:00 +17°C° 0 mm 2 m/S 750 mmHg 92%
    04:00 +16°C° 0 mm 2 m/S 750 mmHg 93%
    05:00 +16°C° 0 mm 2 m/S 750 mmHg 94%
    06:00 +18°C° 0 mm 2 m/S 750 mmHg 89%
    07:00 +19°C° 0 mm 2 m/S 750 mmHg 85%
    08:00 +21°C° 0 mm 2 m/S 750 mmHg 80%
    09:00 +22°C° 0 mm 3 m/S 750 mmHg 76%
    10:00 +24°C° 0 mm 3 m/S 750 mmHg 71%
    11:00 +26°C° 0 mm 3 m/S 749 mmHg 67%
    12:00 +26°C° 0,1 mm 3 m/S 749 mmHg 65%
    13:00 +27°C° 0,1 mm 3 m/S 749 mmHg 63%
    14:00 +27°C° 0,1 mm 2 m/S 748 mmHg 61%
    15:00 +27°C° 0,5 mm 2 m/S 748 mmHg 64%
    16:00 +27°C° 0,5 mm 2 m/S 748 mmHg 66%
    17:00 +27°C° 0,5 mm 2 m/S 748 mmHg 68%
    18:00 +26°C° 0,8 mm 2 m/S 747 mmHg 74%
    19:00 +24°C° 0,8 mm 2 m/S 747 mmHg 80%
    20:00 +22°C° 0,8 mm 3 m/S 747 mmHg 86%
    21:00 +21°C° 1,1 mm 3 m/S 747 mmHg 89%
    22:00 +20°C° 1,1 mm 3 m/S 747 mmHg 91%
    23:00 +20°C° 1,1 mm 3 m/S 746 mmHg 93%

    Morgen, 24 Juli, Montag

    Zeit Temperatur Niederschläge Wind Luftdruck Luftfeuchtigkeit
    00:00 +20°C° 0,6 mm 2 m/S 746 mmHg 93%
    01:00 +19°C° 0,6 mm 2 m/S 746 mmHg 94%
    02:00 +19°C° 0,6 mm 2 m/S 746 mmHg 95%
    03:00 +19°C° 0 mm 2 m/S 746 mmHg 95%
    04:00 +18°C° 0 mm 2 m/S 746 mmHg 95%
    05:00 +18°C° 0 mm 2 m/S 745 mmHg 95%
    06:00 +19°C° 0 mm 3 m/S 745 mmHg 91%
    07:00 +21°C° 0 mm 3 m/S 745 mmHg 88%
    08:00 +22°C° 0 mm 3 m/S 745 mmHg 84%
    09:00 +24°C° 0 mm 3 m/S 745 mmHg 76%
    10:00 +25°C° 0 mm 3 m/S 745 mmHg 69%
    11:00 +26°C° 0 mm 3 m/S 745 mmHg 61%
    12:00 +27°C° 0 mm 3 m/S 745 mmHg 60%
    13:00 +27°C° 0 mm 3 m/S 745 mmHg 58%
    14:00 +28°C° 0 mm 3 m/S 744 mmHg 56%
    15:00 +28°C° 0 mm 2 m/S 744 mmHg 56%
    16:00 +28°C° 0 mm 2 m/S 744 mmHg 55%
    17:00 +28°C° 0 mm 1 m/S 744 mmHg 55%
    18:00 +26°C° 0,2 mm 1 m/S 744 mmHg 61%
    19:00 +25°C° 0,2 mm 1 m/S 744 mmHg 66%
    20:00 +24°C° 0,2 mm 1 m/S 743 mmHg 71%
    21:00 +23°C° 0,4 mm 2 m/S 743 mmHg 74%
    22:00 +21°C° 0,4 mm 2 m/S 743 mmHg 77%
    23:00 +20°C° 0,4 mm 3 m/S 742 mmHg 81%

    übermorgen, 25 Juli, Dienstag

    Zeit Temperatur Niederschläge Wind Luftdruck Luftfeuchtigkeit
    00:00 +20°C° 0,6 mm 3 m/S 742 mmHg 84%
    01:00 +19°C° 0,6 mm 3 m/S 742 mmHg 88%
    02:00 +19°C° 0,6 mm 3 m/S 742 mmHg 92%
    03:00 +19°C° 0,3 mm 4 m/S 741 mmHg 92%
    04:00 +19°C° 0,3 mm 4 m/S 741 mmHg 93%
    05:00 +18°C° 0,3 mm 4 m/S 740 mmHg 93%
    06:00 +19°C° 0,3 mm 4 m/S 740 mmHg 93%
    07:00 +20°C° 0,3 mm 5 m/S 740 mmHg 92%
    08:00 +20°C° 0,3 mm 5 m/S 739 mmHg 92%
    09:00 +22°C° 0,2 mm 5 m/S 739 mmHg 88%
    10:00 +23°C° 0,2 mm 5 m/S 739 mmHg 85%
    11:00 +25°C° 0,2 mm 5 m/S 738 mmHg 82%
    12:00 +26°C° 0,9 mm 4 m/S 738 mmHg 78%
    13:00 +27°C° 0,9 mm 4 m/S 738 mmHg 74%
    14:00 +28°C° 0,9 mm 4 m/S 738 mmHg 71%
    15:00 +28°C° 0,6 mm 4 m/S 738 mmHg 71%
    16:00 +28°C° 0,6 mm 4 m/S 737 mmHg 71%
    17:00 +28°C° 0,6 mm 3 m/S 737 mmHg 71%
    18:00 +27°C° 0,7 mm 3 m/S 737 mmHg 76%
    19:00 +26°C° 0,7 mm 3 m/S 737 mmHg 81%
    20:00 +24°C° 0,7 mm 2 m/S 737 mmHg 86%
    21:00 +24°C° 0,4 mm 2 m/S 737 mmHg 88%
    22:00 +23°C° 0,4 mm 1 m/S 737 mmHg 89%
    23:00 +22°C° 0,4 mm 1 m/S 737 mmHg 91%

    26 Juli, Mittwoch

    Zeit Temperatur Niederschläge Wind Luftdruck Luftfeuchtigkeit
    00:00 +22°C° 0,2 mm 1 m/S 737 mmHg 92%
    01:00 +21°C° 0,2 mm 1 m/S 736 mmHg 92%
    02:00 +20°C° 0,2 mm 2 m/S 736 mmHg 93%
    03:00 +21°C° 0,4 mm 1 m/S 736 mmHg 94%
    04:00 +21°C° 0,4 mm 1 m/S 736 mmHg 95%
    05:00 +20°C° 0,4 mm 1 m/S 736 mmHg 96%
    06:00 +20°C° 0,6 mm 2 m/S 736 mmHg 95%
    07:00 +21°C° 0,6 mm 2 m/S 736 mmHg 94%
    08:00 +21°C° 0,6 mm 2 m/S 736 mmHg 92%
    09:00 +23°C° 0,7 mm 2 m/S 737 mmHg 90%
    10:00 +22°C° 0,7 mm 3 m/S 737 mmHg 88%
    11:00 +24°C° 0,7 mm 3 m/S 737 mmHg 85%
    12:00 +24°C° 1 mm 3 m/S 737 mmHg 83%
    13:00 +25°C° 1 mm 4 m/S 737 mmHg 81%
    14:00 +25°C° 1 mm 4 m/S 738 mmHg 79%
    15:00 +25°C° 1,4 mm 4 m/S 738 mmHg 81%
    16:00 +23°C° 1,4 mm 4 m/S 738 mmHg 82%
    17:00 +23°C° 1,4 mm 5 m/S 738 mmHg 83%
    18:00 +22°C° 0,9 mm 5 m/S 738 mmHg 86%
    19:00 +21°C° 0,9 mm 5 m/S 738 mmHg 88%
    20:00 +20°C° 0,9 mm 4 m/S 739 mmHg 91%
    21:00 +20°C° 0 mm 5 m/S 739 mmHg 91%
    22:00 +19°C° 0 mm 5 m/S 739 mmHg 92%
    23:00 +19°C° 0 mm 5 m/S 739 mmHg 92%

    27 Juli, Donnerstag

    Zeit Temperatur Niederschläge Wind Luftdruck Luftfeuchtigkeit
    00:00 +19°C° 0 mm 5 m/S 740 mmHg 93%
    01:00 +18°C° 0 mm 4 m/S 740 mmHg 94%
    02:00 +18°C° 0 mm 4 m/S 740 mmHg 95%
    03:00 +17°C° 0 mm 4 m/S 740 mmHg 95%
    04:00 +16°C° 0 mm 5 m/S 740 mmHg 95%
    05:00 +16°C° 0 mm 5 m/S 740 mmHg 94%
    06:00 +16°C° 0 mm 5 m/S 741 mmHg 93%
    07:00 +17°C° 0 mm 5 m/S 741 mmHg 91%
    08:00 +17°C° 0 mm 5 m/S 741 mmHg 90%
    09:00 +19°C° 0,2 mm 5 m/S 742 mmHg 89%
    10:00 +19°C° 0,2 mm 5 m/S 742 mmHg 89%
    11:00 +19°C° 0,2 mm 5 m/S 742 mmHg 88%
    12:00 +19°C° 0,4 mm 5 m/S 743 mmHg 88%
    13:00 +19°C° 0,4 mm 5 m/S 743 mmHg 88%
    14:00 +19°C° 0,4 mm 5 m/S 743 mmHg 89%
    15:00 +17°C° 0,4 mm 5 m/S 743 mmHg 90%
    16:00 +17°C° 0,4 mm 5 m/S 744 mmHg 92%
    17:00 +17°C° 0,4 mm 5 m/S 744 mmHg 93%
    18:00 +17°C° 0,3 mm 5 m/S 744 mmHg 93%
    19:00 +17°C° 0,3 mm 5 m/S 745 mmHg 93%
    20:00 +17°C° 0,3 mm 5 m/S 745 mmHg 93%
    21:00 +18°C° 0,1 mm 4 m/S 745 mmHg 93%
    22:00 +17°C° 0,1 mm 4 m/S 746 mmHg 93%
    23:00 +17°C° 0,1 mm 3 m/S 746 mmHg 93%

    28 Juli, Freitag

    Zeit Temperatur Niederschläge Wind Luftdruck Luftfeuchtigkeit
    00:00 +17°C° 0 mm 3 m/S 746 mmHg 93%
    01:00 +16°C° 0 mm 3 m/S 746 mmHg 94%
    02:00 +16°C° 0 mm 3 m/S 746 mmHg 94%
    03:00 +14°C° 0 mm 3 m/S 747 mmHg 95%
    04:00 +14°C° 0 mm 3 m/S 747 mmHg 95%
    05:00 +13°C° 0 mm 3 m/S 747 mmHg 95%
    06:00 +14°C° 0 mm 3 m/S 747 mmHg 91%
    07:00 +17°C° 0 mm 3 m/S 747 mmHg 87%
    08:00 +18°C° 0 mm 3 m/S 748 mmHg 83%
    09:00 +20°C° 0 mm 3 m/S 748 mmHg 77%
    10:00 +21°C° 0 mm 3 m/S 748 mmHg 71%
    11:00 +24°C° 0 mm 3 m/S 748 mmHg 64%
    12:00 +25°C° 0 mm 3 m/S 748 mmHg 62%
    13:00 +25°C° 0 mm 3 m/S 748 mmHg 59%
    14:00 +26°C° 0 mm 3 m/S 748 mmHg 56%
    15:00 +26°C° 0 mm 3 m/S 748 mmHg 57%
    16:00 +26°C° 0 mm 3 m/S 747 mmHg 57%
    17:00 +26°C° 0 mm 2 m/S 747 mmHg 58%
    18:00 +25°C° 0 mm 2 m/S 747 mmHg 63%
    19:00 +23°C° 0 mm 2 m/S 747 mmHg 69%
    20:00 +21°C° 0 mm 2 m/S 747 mmHg 74%
    21:00 +20°C° 0 mm 2 m/S 747 mmHg 75%
    22:00 +20°C° 0 mm 2 m/S 747 mmHg 75%
    23:00 +19°C° 0 mm 2 m/S 747 mmHg 75%
    Mehr zeigen